NOAA 16 DEB, 42359

Orbit data source: Space-Track

NOAA 16 DEB, 42359 is space debris in SSO originally from a launch on Thu, 21 Sep 2000 UTC launched from the Air Force Western Test Range (AFWTR). Debris objects in space refer to the collection of defunct objects orbiting the Earth. Examples of debris include non-operational satellites, rocket bodies, and fragments generated from explosions, collisions, or faulty payload assembly.

Loading next visibility...
Identifier
42359, 2000-055RB
Orbit
SSO
Country
Flag of USUS
Related business
Manufacturer
Unknown
Mission
Spacecraft
Bus & Motor
Unknown
Mass
Unknown
Launch date (UTC)
2000-09-21 (26 years ago)
Launch vehicle
Unknown
Launch site
Air Force Western Test Range (AFWTR)
Object type
Payload
Rocket body
Debris
Shape & HBR
Unknown shape, 0.1 m
Radar Cross Section
Small (<0.1 m²)

Expand to show TLE details & history
Last TLE update: 2 weeks ago

TLE from 2 weeks ago
0 NOAA 16 DEB
1 42359U 00055RB  26158.28705914  .00006931  00000-0  19098-2 0  9999
2 42359  98.9738 336.4132 0013919 202.4466 157.6118 14.47133707528986
Epoch: 2026-06-07T06:53Z
TLE epoch observation values (Epoch: 2026-06-07T06:53:21.909Z)
Latitude
0.00005°
Longitude
-22.61853°
Altitude
747.127 km
Speed
7.476 km/s
True Right ascension
22h 25m 39s
True Declination
0° 00' 00"
Sunlit
Object was in daylight at epoch
Visualization orbit readout
Latitude
Unknown
Longitude
Unknown
Altitude
Unknown
Speed
Unknown
Apparent Right ascension
Unknown
Apparent Declination
Unknown
Sunlit
N/A
Visualization observer readout
Local Sidereal Time
21:40:53
Azimuth
Unknown
Elevation
Unknown
Doppler factor
Unknown
Orbital elements
Apogee altitude
742.058 km
Perigee altitude
722.264 km
Semi-major axis
7,110.298 km
Eccentricity
0.00139
Inclination
98.9738°
RAAN
336.4132°
Arg. of periapsis
202.4466°
True anomaly
157.67245°
Mean anomaly
157.6118°
Eccentric anomaly
157.64214°
Mean motion
3.62002 °/min
Orbital period
99.45 mins
BSTAR
0.0019098
Loading maneuver chart data...
Computing Atmospheric mass density...
Loading historical data...
Loading historical data...
Loading historical data...
Loading historical data...
Loading historical data...
Loading historical data...
Loading historical data...

Documentation

Showing up to 5 results
|